User: anonymous   Login
Location: Unspecified
(0.0000°N, 0.0000°E)
Time: 12:52:31
(UTC+00:00)
Language:

NOSS 2-1 (E) - Orbit

View from above orbital plane
View from above orbital plane
View from above satellite
View from above satellite

Ground track
Ground track

The orbit data is extracted from the following two-line orbital elements,

1 20642U 90050E   17198.88898857 0.00000080  00000-0  20177-4 0    07
2 20642  63.3415 114.8251 0793000  28.7557 331.2443 13.41680270    05
Epoch (UTC): 17 July 2017 21:20:08
Eccentricity: 0.0793000
inclination: 63.3415°
perigee height: 510 km
apogee height: 1696 km
right ascension of ascending node: 114.8251°
argument of perigee: 28.7557°
revolutions per day: 13.41680270
mean anomaly at epoch: 331.2443°
orbit number at epoch: 0

The dashed part of the orbit path shows where the satellite is in the earth's shadow,  

DLR